Temperature
18 21 19 18 17 17 18 18 18 17 13 12 13 13 13 8 7 8 8 7 6 5 4 2 2 1 1 1 0 -0 -1 -1 -1 -1 -2 -2 -3 -4 -5 -6 -7 -8 -9 -10
20 19 16 15 15 16 17 18 18 16 12 12 13 13 14 11 8 8 8 7 7 6 4 2 2 1 1 1 0 -0 -1 -1 -2 -2 -3 -3 -4 -5 -7 -8 -8 -9 -9 -10
20 17 14 15 16 17 17 17 17 16 13 11 12 16 13 10 8 7 7 7 7 6 4 2 2 1 1 1 0 -0 -1 -1 -2 -2 -3 -4 -5 -6 -7 -8 -8 -9 -10 -10
17 15 15 16 16 16 18 15 14 14 14 16 14 18 17 12 10 8 7 7 6 6 4 3 1 1 1 1 0 -1 -1 -2 -2 -3 -3 -4 -6 -7 -7 -8 -9 -9 -10 -10
17 15 16 16 15 14 15 13 13 13 14 15 14 16 19 12 13 13 10 8 7 5 4 2 1 1 1 1 -0 -1 -1 -2 -2 -3 -4 -4 -6 -7 -7 -9 -9 -10 -10 -10
15 14 14 15 14 13 13 13 13 13 15 17 16 16 19 17 16 15 11 9 6 4 3 2 1 2 1 0 -0 -1 -1 -2 -3 -3 -4 -5 -6 -7 -8 -9 -10 -10 -10 -10
16 15 14 13 15 14 15 17 19 19 19 19 14 15 18 17 14 12 11 8 6 3 2 1 1 1 1 0 -1 -1 -2 -2 -3 -3 -4 -5 -6 -7 -8 -9 -10 -11 -11 -10
19 18 15 14 15 16 15 17 18 18 18 18 15 16 19 14 10 8 7 6 4 2 1 1 1 1 0 -0 -1 -1 -2 -2 -3 -4 -5 -5 -7 -7 -8 -10 -10 -11 -11 -11
19 18 13 12 12 14 16 16 14 16 16 15 18 17 18 11 10 8 7 5 3 2 1 1 1 1 0 -0 -1 -1 -2 -2 -3 -4 -5 -6 -7 -8 -8 -9 -10 -11 -11 -11
16 17 14 12 12 12 14 15 15 16 16 17 18 18 18 18 17 13 9 6 4 2 1 1 1 1 0 -0 -1 -1 -2 -3 -3 -4 -5 -6 -7 -7 -8 -9 -10 -11 -11 -11
14 17 15 14 14 16 13 13 14 15 15 16 17 19 18 18 17 14 12 8 5 2 1 1 1 1 0 -0 -1 -2 -2 -3 -4 -4 -5 -6 -7 -7 -8 -9 -10 -11 -11 -11
12 16 17 16 12 12 14 15 15 16 16 14 15 17 18 15 13 12 11 8 5 3 2 1 1 1 0 -0 -1 -2 -3 -3 -4 -4 -5 -6 -7 -8 -8 -9 -10 -11 -11 -11
11 15 18 17 14 12 12 13 13 14 14 14 14 18 16 12 11 10 8 7 4 2 1 1 1 1 0 -1 -1 -2 -3 -3 -4 -4 -5 -6 -7 -8 -8 -9 -10 -10 -11 -11
10 14 17 19 18 16 14 12 11 13 14 15 14 17 19 17 15 13 9 6 4 2 1 1 1 1 0 -1 -1 -2 -3 -3 -4 -5 -5 -6 -7 -7 -8 -8 -9 -10 -11 -11
10 13 14 14 13 12 13 13 11 12 14 15 17 16 17 18 16 13 10 6 3 1 1 2 2 1 0 -0 -1 -2 -2 -3 -4 -5 -5 -6 -7 -7 -8 -8 -9 -10 -10 -11
9 12 12 13 11 10 10 11 11 11 12 13 13 14 16 15 12 9 8 5 3 2 2 2 2 1 0 -0 -1 -2 -2 -3 -4 -5 -5 -6 -7 -7 -8 -8 -9 -9 -10 -10
9 11 12 15 12 11 14 14 11 10 11 12 13 15 16 12 11 10 8 6 6 4 3 3 2 2 1 -0 -1 -2 -2 -3 -4 -5 -5 -6 -7 -7 -8 -8 -8 -9 -9 -10
9 11 12 13 13 14 18 12 12 11 11 11 12 14 14 13 10 9 9 8 7 6 5 4 3 2 1 -0 -1 -2 -2 -3 -4 -4 -5 -6 -6 -7 -7 -8 -8 -9 -9 -10
8 11 12 11 13 15 16 11 10 11 13 14 12 12 13 9 6 10 13 11 9 8 6 5 3 2 1 -0 -1 -2 -2 -3 -4 -4 -5 -6 -6 -6 -7 -7 -8 -8 -9 -9
6 9 11 9 12 14 18 11 9 12 14 15 12 12 11 5 12 14 12 11 9 7 5 4 2 1 0 -0 -1 -2 -2 -3 -3 -4 -5 -5 -6 -6 -7 -7 -8 -8 -8 -9
7 8 9 9 10 14 14 8 9 14 18 17 15 14 11 8 13 13 11 10 9 7 5 3 2 1 0 -0 -1 -1 -2 -3 -3 -4 -5 -5 -6 -6 -6 -7 -7 -8 -8 -8
10 9 8 9 10 13 10 8 12 18 18 17 16 16 14 14 13 12 11 9 8 7 5 3 2 1 0 -0 -1 -1 -2 -3 -3 -4 -5 -5 -5 -6 -6 -6 -6 -7 -7 -8
11 12 12 11 14 15 11 13 16 17 17 17 17 16 14 13 13 12 11 9 8 7 5 3 2 1 0 -0 -1 -1 -2 -3 -3 -4 -4 -5 -5 -5 -6 -6 -6 -6 -7 -8
10 8 10 9 11 12 11 14 16 16 16 17 17 16 15 14 14 12 11 9 8 7 5 4 2 1 0 -0 -1 -1 -2 -2 -3 -4 -4 -5 -5 -5 -5 -5 -6 -6 -6 -7
13 8 9 10 12 12 14 17 19 19 18 18 18 17 16 15 14 13 12 10 8 7 6 4 3 2 1 0 -1 -1 -2 -2 -3 -4 -4 -4 -5 -5 -5 -5 -5 -6 -6 -7
10 9 11 15 16 14 17 18 18 17 17 17 17 17 16 15 14 13 12 10 9 7 6 5 3 2 1 0 -1 -1 -2 -2 -3 -3 -4 -4 -4 -4 -4 -5 -5 -5 -6 -6
Wind_Speed
4 3 5 4 3 2 1 3 5 2 3 6 12 14 10 14 18 18 17 17 17 16 13 11 10 8 4 1 3 5 8 9 10 8 9 9 10 10 11 12 15 16 17 18
3 4 3 1 1 2 3 5 5 2 2 5 10 15 11 13 19 19 18 18 18 16 13 12 11 9 5 2 3 5 7 8 9 9 9 9 10 9 10 12 14 15 17 18
3 4 1 2 2 2 3 4 5 6 2 4 8 7 5 5 11 15 17 17 17 16 16 14 12 9 6 2 2 4 6 7 9 10 9 9 8 8 8 11 11 15 18 18
5 2 3 2 1 3 2 1 4 5 6 3 3 5 3 4 7 12 16 17 17 16 15 14 12 10 6 2 1 3 5 7 8 9 9 11 10 11 12 11 11 17 17 18
3 2 1 1 1 2 2 1 3 3 3 4 1 5 2 2 5 8 12 15 15 14 14 14 12 9 5 2 1 3 5 6 7 9 10 10 10 10 10 12 13 14 16 17
4 1 1 1 1 1 1 2 3 3 3 2 1 4 4 2 3 2 4 9 12 13 13 13 11 8 6 3 2 3 4 5 7 8 9 10 12 13 13 14 13 13 12 15
3 3 1 1 2 2 2 5 4 3 3 3 1 5 6 1 4 5 5 5 10 13 14 14 12 9 6 4 3 3 4 6 7 8 9 10 11 12 13 13 13 14 12 13
3 3 2 1 1 1 1 3 4 5 6 6 2 5 5 1 3 5 6 6 10 14 14 14 12 9 7 5 3 3 4 5 7 8 9 9 10 9 9 12 12 13 12 13
3 2 2 1 1 1 2 2 2 2 3 6 5 6 7 4 7 9 9 9 12 15 15 14 12 9 7 5 3 3 4 5 7 8 9 9 10 10 11 12 12 11 13 15
2 2 3 2 3 3 3 4 3 2 4 6 9 7 5 6 6 8 12 13 14 15 15 14 12 10 7 5 4 3 3 5 6 7 8 8 10 10 11 11 12 13 15 16
2 3 3 4 6 4 5 4 3 2 3 4 7 7 4 9 7 8 10 12 14 17 17 14 12 10 8 6 5 3 3 5 6 7 8 9 9 10 11 10 12 13 14 16
2 3 3 3 2 2 4 5 6 4 4 4 5 8 4 8 7 9 10 9 13 16 15 14 12 10 9 7 6 4 4 5 6 6 8 9 9 10 11 11 12 14 14 15
5 4 3 3 3 4 5 6 6 3 3 6 5 9 2 5 8 10 11 10 11 15 15 14 12 11 10 8 6 5 4 4 5 6 8 9 9 10 11 11 12 13 14 15
4 5 7 5 1 5 7 8 10 9 7 7 12 17 16 13 12 11 11 11 12 15 16 15 13 12 10 9 7 5 5 4 5 6 7 8 9 10 11 11 12 12 13 14
4 5 6 8 6 5 8 11 14 16 14 12 12 12 20 18 16 12 8 9 13 15 17 17 15 12 11 10 8 6 5 4 5 6 7 8 9 10 10 11 11 12 12 13
5 5 3 5 4 6 9 15 18 18 15 18 20 21 22 17 10 9 9 11 15 17 18 17 15 14 13 11 9 7 6 5 5 6 7 8 9 9 10 11 11 12 12 13
7 6 3 4 1 5 12 13 19 11 13 13 15 13 9 7 10 11 10 13 16 17 18 18 17 15 13 12 10 8 6 5 5 6 7 7 8 9 10 11 11 12 12 13
7 5 3 4 3 9 5 3 11 11 11 17 16 16 15 13 11 10 11 13 16 17 18 17 16 14 12 11 10 8 6 6 6 7 7 7 8 9 10 11 11 12 12 12
3 5 4 3 4 10 6 5 8 9 9 14 18 20 17 3 7 10 12 15 15 16 17 16 15 14 13 12 11 9 7 7 7 7 7 7 8 9 10 11 12 12 12 12
2 3 4 4 5 8 4 5 5 4 7 7 14 16 9 3 7 8 4 11 13 13 14 14 14 14 13 12 11 10 8 8 8 7 7 7 8 9 10 11 12 11 11 12
5 6 8 8 8 11 2 7 8 5 5 4 11 12 10 10 11 2 4 8 12 14 14 15 15 14 13 13 12 10 9 9 7 6 7 8 8 9 10 11 10 11 11 11
12 10 10 8 8 11 8 11 11 9 2 4 7 10 11 15 11 6 7 10 13 15 15 16 15 13 12 13 12 11 10 8 6 6 7 8 8 8 8 10 10 10 10 11
12 12 9 13 11 3 13 13 9 4 6 7 7 9 11 13 13 11 10 12 14 16 16 16 15 14 13 13 13 12 10 8 7 6 7 7 8 8 8 8 9 9 8 8
9 5 7 9 15 10 13 16 14 13 15 16 13 11 11 14 14 13 12 13 15 16 17 16 16 15 14 14 14 12 9 8 7 7 6 6 7 7 7 6 6 6 7 8
9 10 8 12 11 9 13 18 21 20 19 19 18 16 16 16 16 15 14 15 16 16 17 17 17 17 16 15 14 13 11 10 9 7 6 6 6 6 6 6 6 7 6 8
9 11 12 16 10 9 11 6 9 14 17 17 16 16 15 17 17 15 15 15 16 17 18 18 18 17 16 15 15 13 12 11 10 7 6 4 4 4 5 6 6 5 7 10
Wind_Direction
27 85 76 58 21 9 309 274 286 304 156 226 252 262 243 201 208 218 218 218 219 220 212 194 190 189 193 233 336 344 343 344 344 342 339 337 335 332 331 331 331 330 331 329
128 86 65 41 146 201 247 275 289 260 183 251 286 277 262 214 213 219 223 223 223 220 206 195 192 193 202 241 333 339 342 341 344 340 331 327 323 321 323 327 328 329 328 326
93 95 117 146 124 237 255 283 310 309 288 233 297 278 193 205 225 229 233 234 231 223 212 199 194 195 199 227 339 338 336 335 340 338 331 328 325 324 332 333 330 328 325 322
94 112 162 156 100 324 302 305 292 288 288 297 330 312 166 190 228 230 230 229 229 222 215 200 191 190 192 186 330 322 327 331 339 338 336 336 332 331 332 330 324 324 323 321
117 119 154 173 77 295 322 324 262 256 268 280 248 292 285 173 253 235 228 225 223 216 206 194 185 178 171 170 266 308 319 328 338 339 337 333 329 327 325 326 324 325 324 323
102 107 31 72 127 226 214 203 178 199 237 274 86 304 294 201 226 229 222 222 215 204 193 182 171 166 171 184 239 293 312 327 338 338 335 332 329 328 326 328 327 327 324 325
151 152 119 206 205 171 259 306 314 312 311 344 89 273 267 279 239 251 254 234 207 192 183 176 174 178 187 203 234 278 308 329 337 334 332 330 328 326 325 326 325 326 324 326
206 177 134 48 347 4 34 343 357 324 319 317 260 264 282 203 236 248 254 240 201 191 187 183 181 183 190 203 229 270 311 329 332 329 328 326 326 324 320 322 321 320 321 321
224 173 119 65 39 304 146 110 14 272 281 284 276 275 284 203 245 238 233 218 203 194 190 186 182 185 192 202 223 269 310 322 324 323 323 321 326 324 319 319 319 319 320 321
228 206 162 141 148 53 7 142 172 251 310 302 295 282 270 281 274 231 227 220 206 195 191 187 185 187 191 199 216 249 295 311 313 315 319 317 320 320 318 317 319 320 321 323
219 221 170 188 210 199 160 167 182 180 253 276 299 291 214 260 276 260 248 224 205 196 192 188 185 186 189 197 213 239 277 297 304 311 315 316 319 319 318 317 319 321 321 323
191 233 225 193 110 349 233 212 194 229 223 228 267 273 215 242 255 256 260 234 207 197 192 186 183 184 192 202 211 229 261 284 298 305 309 314 317 319 319 319 320 321 322 324
176 214 232 192 184 196 216 208 203 206 220 218 237 267 172 233 251 251 253 239 205 193 188 185 184 190 197 202 208 222 248 273 290 298 305 312 317 320 321 320 320 321 322 323
197 234 241 264 257 178 203 198 191 190 216 229 234 265 286 287 282 272 251 232 205 193 190 189 190 194 197 201 206 218 240 262 282 293 301 310 318 321 319 318 318 320 322 323
204 244 248 267 263 238 242 221 200 210 225 239 253 260 276 291 302 295 267 219 201 196 195 195 195 194 194 198 203 212 231 251 270 285 296 306 312 316 316 317 318 320 321 322
206 234 256 270 247 232 255 240 222 226 236 245 261 273 271 280 283 268 245 213 206 204 200 198 196 193 194 196 198 205 221 238 260 275 285 295 302 307 311 313 317 319 320 322
187 199 224 264 202 285 266 235 202 205 214 214 231 247 264 263 262 265 247 216 214 208 201 197 196 195 193 191 191 199 212 227 249 265 276 286 294 302 308 311 315 318 319 320
177 188 231 281 293 247 256 118 181 205 229 220 239 260 268 273 289 276 250 228 218 207 199 197 193 190 186 180 183 192 204 225 245 260 268 277 286 295 303 310 313 317 318 316
214 196 215 235 258 276 268 183 177 201 261 224 230 252 265 307 304 274 231 220 217 203 196 191 186 180 176 177 179 188 206 223 240 254 264 274 281 288 298 305 311 316 316 313
126 204 221 203 229 249 262 142 158 161 274 227 211 238 242 194 285 301 171 199 202 192 184 178 172 171 174 176 177 191 208 222 236 249 264 276 281 286 295 303 311 314 315 312
171 191 210 217 236 264 251 137 151 190 267 201 204 225 202 210 242 280 162 186 188 182 176 171 169 175 179 174 179 196 210 222 232 247 266 277 282 289 296 302 308 311 312 313
180 178 196 186 208 251 163 154 194 227 250 209 217 222 218 232 243 225 205 189 183 180 176 174 174 178 176 176 184 200 213 216 219 239 262 275 284 289 291 301 307 312 315 316
206 200 195 195 214 265 172 203 225 266 252 244 234 233 226 238 242 227 212 197 189 185 181 179 179 178 179 184 192 204 207 200 208 232 256 274 285 289 293 302 309 315 319 319
217 210 208 234 255 246 224 241 253 248 250 261 257 248 227 235 241 224 210 197 191 189 185 181 182 185 188 190 197 207 198 190 204 229 251 269 282 291 299 304 307 314 316 320
211 180 212 242 259 289 256 235 244 252 254 258 258 248 239 236 237 221 209 200 193 189 187 185 189 193 192 190 197 200 196 193 205 223 242 261 273 286 297 304 308 308 308 315
201 195 210 249 232 222 257 226 222 240 252 251 250 251 238 228 232 217 211 201 193 189 186 189 193 194 192 190 195 195 193 194 201 213 229 245 266 283 296 306 308 296 299 317
Height
1581 1580 1583 1588 1589 1589 1587 1586 1585 1588 1597 1598 1592 1589 1590 1596 1599 1600 1601 1602 1603 1604 1606 1605 1604 1604 1603 1601 1599 1596 1592 1588 1584 1580 1575 1570 1565 1559 1553 1547 1541 1535 1529 1523
1580 1586 1592 1593 1592 1591 1589 1587 1585 1590 1598 1596 1588 1584 1583 1588 1592 1593 1595 1596 1598 1600 1602 1601 1601 1601 1600 1599 1596 1593 1589 1585 1581 1577 1572 1566 1560 1555 1549 1544 1538 1532 1526 1520
1580 1591 1593 1592 1591 1590 1589 1587 1587 1590 1593 1596 1592 1573 1580 1586 1589 1590 1591 1592 1593 1595 1597 1597 1597 1597 1597 1596 1593 1590 1586 1582 1578 1574 1569 1563 1558 1553 1548 1541 1535 1529 1523 1517
1587 1592 1593 1591 1591 1590 1586 1592 1593 1592 1590 1581 1590 1571 1567 1579 1584 1585 1585 1586 1587 1590 1592 1593 1593 1594 1594 1592 1590 1586 1583 1579 1575 1571 1566 1560 1555 1549 1544 1537 1531 1526 1521 1515
1588 1592 1591 1590 1592 1593 1590 1594 1593 1592 1589 1584 1586 1577 1561 1578 1574 1575 1578 1580 1582 1585 1587 1588 1589 1590 1590 1588 1586 1583 1580 1576 1572 1568 1563 1557 1552 1547 1541 1535 1529 1523 1518 1512
1591 1593 1593 1592 1594 1594 1593 1593 1592 1591 1586 1576 1581 1578 1563 1565 1566 1569 1574 1576 1578 1580 1582 1583 1584 1585 1586 1584 1582 1580 1577 1574 1570 1565 1560 1555 1549 1544 1538 1532 1526 1520 1515 1509
1588 1591 1593 1593 1591 1591 1590 1583 1576 1573 1572 1570 1587 1582 1565 1563 1568 1570 1572 1573 1574 1575 1577 1578 1580 1581 1582 1581 1579 1576 1574 1571 1567 1562 1557 1552 1546 1541 1535 1529 1523 1517 1512 1506
1582 1584 1591 1592 1590 1588 1589 1585 1586 1587 1580 1573 1580 1575 1557 1565 1568 1568 1569 1570 1570 1571 1572 1574 1576 1577 1578 1577 1575 1573 1571 1568 1564 1559 1554 1549 1543 1538 1532 1527 1521 1515 1509 1503
1579 1584 1593 1593 1593 1591 1587 1587 1592 1587 1589 1588 1569 1564 1557 1564 1564 1565 1565 1565 1565 1566 1568 1570 1571 1573 1573 1572 1571 1570 1567 1564 1560 1556 1551 1546 1541 1535 1530 1524 1519 1513 1507 1501
1583 1583 1590 1594 1594 1595 1592 1590 1590 1588 1586 1581 1566 1561 1557 1549 1551 1556 1559 1559 1559 1561 1562 1564 1566 1568 1568 1568 1567 1566 1564 1561 1557 1553 1548 1543 1538 1532 1527 1521 1516 1510 1504 1499
1587 1583 1587 1590 1589 1584 1592 1592 1589 1588 1587 1584 1576 1557 1547 1546 1547 1550 1551 1552 1553 1554 1556 1559 1561 1563 1563 1563 1563 1562 1560 1557 1554 1550 1545 1540 1535 1530 1524 1519 1513 1508 1502 1496
1588 1583 1577 1582 1589 1590 1587 1584 1585 1583 1582 1586 1580 1560 1543 1545 1547 1547 1547 1547 1547 1549 1551 1554 1556 1558 1558 1559 1559 1558 1556 1554 1551 1547 1542 1538 1532 1527 1522 1517 1511 1505 1499 1494
1589 1583 1575 1576 1586 1590 1587 1585 1585 1584 1583 1582 1579 1552 1541 1543 1544 1543 1542 1542 1542 1543 1545 1548 1550 1552 1553 1554 1554 1554 1552 1550 1547 1543 1539 1535 1530 1525 1520 1514 1508 1502 1497 1491
1588 1582 1574 1566 1566 1569 1577 1582 1584 1582 1578 1572 1566 1545 1533 1534 1536 1536 1537 1536 1537 1537 1539 1542 1545 1547 1548 1549 1550 1549 1548 1546 1543 1540 1536 1532 1527 1522 1517 1511 1506 1500 1494 1488
1587 1580 1575 1572 1573 1575 1572 1572 1578 1574 1565 1561 1546 1544 1533 1529 1530 1531 1531 1530 1531 1531 1533 1535 1538 1541 1543 1544 1545 1545 1544 1542 1540 1537 1533 1529 1525 1520 1515 1509 1504 1498 1492 1486
1585 1580 1579 1572 1572 1575 1573 1566 1567 1568 1564 1558 1551 1543 1528 1528 1527 1526 1526 1524 1524 1524 1526 1529 1533 1535 1537 1539 1540 1540 1539 1538 1536 1533 1530 1526 1522 1517 1512 1507 1501 1496 1490 1484
1581 1579 1576 1565 1570 1569 1556 1542 1553 1555 1550 1548 1543 1530 1522 1524 1522 1521 1519 1517 1516 1517 1519 1522 1526 1529 1532 1534 1535 1535 1535 1534 1532 1530 1527 1523 1519 1515 1510 1504 1499 1493 1488 1482
1577 1576 1573 1569 1566 1565 1530 1537 1539 1542 1538 1537 1531 1524 1521 1520 1518 1515 1512 1511 1510 1511 1513 1517 1521 1524 1527 1528 1530 1530 1530 1530 1528 1526 1524 1520 1517 1512 1507 1502 1497 1491 1486 1480
1576 1573 1571 1574 1564 1546 1530 1536 1538 1539 1529 1522 1524 1519 1516 1516 1513 1507 1505 1504 1504 1506 1508 1512 1516 1519 1521 1523 1525 1525 1526 1525 1524 1523 1520 1517 1514 1509 1505 1499 1494 1489 1484 1478
1577 1575 1573 1576 1566 1551 1522 1530 1532 1534 1527 1513 1515 1513 1512 1514 1511 1502 1501 1500 1500 1501 1504 1507 1510 1513 1516 1518 1519 1520 1521 1521 1520 1519 1517 1514 1510 1506 1502 1497 1492 1487 1482 1477
1574 1573 1572 1569 1563 1538 1523 1529 1533 1531 1515 1508 1507 1506 1507 1506 1503 1499 1496 1496 1496 1497 1499 1502 1505 1508 1510 1512 1514 1515 1516 1516 1516 1515 1513 1511 1507 1504 1500 1495 1490 1485 1480 1475
1549 1556 1559 1558 1558 1537 1523 1526 1522 1509 1504 1503 1502 1501 1500 1497 1495 1492 1491 1491 1491 1491 1493 1496 1499 1502 1505 1507 1509 1510 1511 1512 1511 1511 1510 1507 1504 1501 1497 1493 1488 1483 1478 1473
1536 1531 1530 1531 1521 1510 1509 1506 1503 1502 1500 1498 1496 1494 1493 1490 1487 1485 1484 1484 1484 1485 1487 1489 1493 1496 1498 1501 1503 1505 1506 1507 1507 1507 1505 1504 1501 1498 1495 1490 1486 1481 1476 1471
1525 1525 1525 1522 1509 1504 1503 1500 1499 1497 1495 1492 1490 1488 1485 1481 1479 1477 1476 1476 1477 1478 1480 1483 1486 1489 1491 1494 1497 1499 1501 1501 1502 1502 1501 1500 1498 1496 1492 1488 1484 1479 1474 1469
1509 1517 1516 1510 1500 1499 1493 1492 1491 1490 1488 1485 1482 1480 1476 1474 1471 1469 1468 1468 1468 1470 1472 1475 1478 1481 1485 1488 1491 1493 1495 1496 1497 1497 1497 1496 1495 1492 1490 1487 1483 1478 1473 1469
1503 1504 1503 1491 1489 1491 1485 1485 1485 1482 1479 1476 1474 1470 1467 1465 1462 1460 1459 1459 1460 1462 1464 1466 1470 1474 1478 1481 1484 1487 1489 1490 1492 1493 1493 1492 1491 1489 1487 1485 1482 1477 1473 1469